Погода в Коне-Куре-сюре-Луаре

Франция     47°24′42″N   2°55′34″E
темп.,
°C
ветер,
м/с
пор.,
м/с
влажн.,
%
обл.,
%
осадки,
мм/ч
давл.,
гПа
погр.,
м
26 октября, вт
вт2623:00+9ююз349559 0.1 102264
02:00+9юз379699 0.5 1023132
05:00+8юз22965 0.4 102321
08:00+7юз229792 0.4 102420
11:00+11зюз3485100 0.0 1025313
14:00+15з3459100 0.0 1025881
17:00+15з3359100 0.0 1024842
20:00+10ююз127690 0.0 102510
27 октября, ср
ср2723:00+9ююз118174 0.0 102610
02:00+8ю2285100 0.0 102614
05:00+7ююв228885 0.0 102514
08:00+7ю22907 0.0 102513
11:00+12ююв237057 0.0 1025243
14:00+16юв22596 0.0 1024796
17:00+17вюв235643 0.0 1022777
20:00+11вюв22797 0.0 102211
28 октября, чт
чт2823:00+9ююв22823 0.0 102214
02:00+8ююв33870 0.0 102036
05:00+7ююв35920 0.0 102074
08:00+6ююв34890 0.0 101966
11:00+12ю46620 0.0 1019219
14:00+18ююв58440 0.0 1016664
17:00+18ю47484 0.0 1015589
20:00+12юв45745 0.0 101463
29 октября, пт
пт2923:00+10ююв3783100 0.0 101494
02:00+9ююв3583100 0.0 101375
05:00+7ююв498399 0.0 1012151
08:00+7ююв4128695 0.0 1012209
11:00+13ююв61267100 0.0 1011406
14:00+18ююз71450100 0.0 10101664
17:00+14ю71478100 0.5 1011715
20:00+13ю61384100 0.5 1011467
30 октября, сб
сб3023:00+13ююв61386100 0.3 1011469
02:00+12ююв61387100 0.8 1011591
05:00+12ю71486100 0.0 1011469
08:00+12ююв61388100 0.1 1011497
11:00+12ююв51392100 0.4 1011523
14:00+13ююв61390100 0.8 1009676
17:00+13ююв61590100 0.6 1008607
20:00+13ююв61588100 1.7 1007679